FENGYUN 1C DEB, 31974

Orbit data source: Space-Track

FENGYUN 1C DEB, 31974 is space debris in SSO originally from a launch on Mon, 10 May 1999 UTC launched from the Taiyaun Space Center, China (TSC). Fengyun 1C debris stems from the Chinese weather satellite Fengyun-1C, which was intentionally destroyed by a Chinese anti-satellite missile in 2007. This event dramatically increased the amount of space debris, with thousands of trackable fragments posing hazards to satellites and human spaceflight. The Fengyun 1C debris cloud has become a focal point in discussions about space sustainability and the need for international regulations to prevent the creation of new debris.

Loading next visibility...
Identifier
31974, 1999-025CPB
Orbit
SSO
Country
Flag of CNCN / PRC
Related business
Manufacturer
Unknown
Mission
Spacecraft
Bus & Motor
Unknown
Mass
Unknown
Launch date (UTC)
1999-05-10 (27 years ago)
Launch vehicle
Unknown
Launch site
Taiyaun Space Center, China (TSC)
Object type
Payload
Rocket body
Debris
Shape & HBR
Unknown shape, 0.1 m
Radar Cross Section
Small (<0.1 m²)

Expand to show TLE details & history
Last TLE update: 3 days ago

TLE from 3 days ago
0 FENGYUN 1C DEB
1 31974U 99025CPB 26034.01317059  .00004749  00000-0  17956-2 0  9994
2 31974  98.3786  48.1810 0072104 147.4935 213.0719 14.30239400701698
Epoch: 2026-02-03T00:18Z
TLE epoch observation values (Epoch: 2026-02-03T00:18:57.938Z)
Latitude
-0.00005°
Longitude
-89.7606°
Altitude
837.306 km
Speed
7.412 km/s
True Right ascension
03h 12m 43s
True Declination
0° 00' 00"
Sunlit
Object was in daylight at epoch
Visualization orbit readout
Latitude
Unknown
Longitude
Unknown
Altitude
Unknown
Speed
Unknown
Apparent Right ascension
Unknown
Apparent Declination
Unknown
Sunlit
N/A
Visualization observer readout
Local Sidereal Time
10:16:53
Azimuth
Unknown
Elevation
Unknown
Doppler factor
Unknown
Orbital elements
Apogee altitude
839.731 km
Perigee altitude
736.389 km
Semi-major axis
7,166.197 km
Eccentricity
0.00721
Inclination
98.3786°
RAAN
48.181°
Arg. of periapsis
147.4935°
True anomaly
212.62441°
Mean anomaly
213.0719°
Eccentric anomaly
212.84782°
Mean motion
3.57775 °/min
Orbital period
100.62 mins
BSTAR
0.0017956
Loading maneuver chart data...
Computing Atmospheric mass density...

Documentation

Showing up to 5 results
|